Location: Kershaw
(34.5481°N, 80.5823°W)
Time: 12:19:50
(UTC+00:00)

A-11 Canister half - Pass Details

Date: 04 October 2022
Orbit: 1524 x 1685 km, 47.3° (Epoch: 25 November)

Event Time Altitude Azimuth Distance (km) Brightness Sun altitude
Rises 03:27:06 0° 303° (WNW) 4,741 12.2 -51.3°
Reaches altitude 10° 03:30:11 10° 300° (WNW) 3,775 11.5 -51.8°
Enters shadow 03:34:07 28° 290° (WNW) 2,651 10.4 -52.3°
